Theta_e
318 318 316 316 315 316 315 315 314 314 312 311 312 311 308 305 303 303 300 296 296 295 295 295 295 295 295 294 294 293 294 294 293 294 298 299 299 305 314 317 320 321 322 323 323 323 323 323 322 322 321 321 321 320 321 321 321 320 320 320 320 319 318 318 318 318 318 319 319 319 320 320 320 321 322 324 325 326 326 327 328 328 328 329 329
318 317 316 315 315 315 315 314 314 313 312 311 310 311 308 302 300 299 297 296 296 296 295 295 294 295 294 295 294 295 294 293 293 294 298 298 298 301 312 315 319 322 322 322 322 323 323 322 321 321 320 320 321 321 320 321 321 320 319 319 318 318 318 317 317 317 317 317 317 318 318 319 319 320 321 321 322 323 324 325 325 325 325 326 326
318 317 316 315 314 314 314 313 313 312 313 311 308 309 307 302 299 297 296 296 295 295 293 294 294 295 295 294 294 294 294 293 293 293 296 299 299 299 303 312 316 319 322 322 323 323 322 323 322 322 321 321 321 320 321 320 322 320 319 319 318 318 317 316 316 316 316 316 317 317 317 318 319 319 319 320 320 320 320 320 321 322 323 323 323
318 316 316 314 313 314 313 313 312 311 312 312 307 306 304 299 297 296 295 295 295 294 293 293 293 295 293 292 292 294 293 293 293 293 295 299 299 298 298 303 312 315 318 322 322 322 323 322 321 321 320 321 321 321 320 319 319 319 319 319 318 317 316 316 315 315 316 316 316 316 316 317 318 318 318 318 318 319 319 319 319 319 320 320 320
317 317 315 314 312 313 312 312 312 311 310 310 306 302 299 296 296 296 294 293 294 293 294 292 293 293 293 292 292 292 292 292 293 294 295 298 299 299 299 298 300 309 313 316 319 321 322 322 321 319 319 320 321 320 319 319 317 317 317 318 318 317 317 315 314 315 315 315 315 316 315 316 316 316 316 317 318 317 318 318 318 318 318 318 319
316 315 315 313 312 312 312 311 311 309 309 306 304 299 297 296 295 294 296 294 293 293 292 291 291 291 291 291 291 291 292 292 292 293 294 293 295 298 299 298 297 298 300 310 313 318 320 321 321 322 322 321 320 320 319 318 317 317 318 317 317 317 317 315 315 314 314 314 314 314 314 315 315 315 316 315 316 316 316 317 317 317 317 317 318
315 315 314 313 312 311 311 311 309 307 306 302 302 297 296 295 294 294 293 291 292 293 292 292 291 292 291 291 291 291 290 292 292 293 293 293 292 297 299 298 297 297 298 296 303 309 316 318 320 321 322 321 319 318 319 318 318 317 317 317 317 317 316 315 315 314 313 314 313 314 313 314 314 314 314 315 315 315 315 315 316 316 316 316 316
314 314 313 312 312 311 310 308 306 305 304 299 299 297 295 295 295 294 292 291 292 291 290 291 290 291 290 289 290 291 290 291 293 292 292 291 292 293 295 297 297 296 298 295 297 301 310 314 316 318 319 320 319 317 318 318 317 317 316 317 316 316 316 315 314 313 313 312 313 312 313 313 313 313 313 313 313 313 314 314 314 315 315 315 315
313 313 313 311 309 310 308 307 304 303 301 298 297 296 295 296 294 293 293 291 291 290 289 291 290 290 289 289 289 290 290 292 292 292 293 291 292 292 291 291 296 301 294 294 294 295 304 309 311 312 313 317 319 320 319 317 317 316 317 317 316 316 315 315 314 314 313 312 311 312 312 312 312 312 312 312 311 312 312 313 312 312 313 314 314
311 311 310 310 309 309 307 306 303 301 300 297 296 294 294 295 293 291 292 291 290 290 289 289 291 290 289 289 289 288 289 290 291 293 291 291 291 291 290 290 291 291 294 293 293 293 296 303 307 307 307 311 315 317 318 319 318 316 317 317 317 316 315 314 314 312 312 311 311 311 311 311 311 311 311 311 310 311 311 311 311 312 312 312 313
310 309 310 308 307 306 307 304 303 300 299 297 295 293 293 293 294 291 290 290 291 289 290 291 291 291 290 290 288 289 289 289 291 291 290 291 291 293 291 290 290 290 291 292 292 292 292 293 291 291 294 306 311 313 315 316 316 318 319 318 316 316 315 314 314 313 311 311 311 311 310 310 310 310 310 310 310 310 310 310 310 311 311 312 312
309 308 309 307 305 304 305 303 302 300 299 297 295 293 293 292 292 292 290 289 289 289 290 290 288 288 289 289 289 289 290 290 289 290 292 291 293 293 292 290 290 289 289 290 291 291 291 291 292 291 292 299 304 307 309 311 311 315 317 320 317 316 315 315 313 312 311 311 311 310 309 309 309 309 309 309 309 309 309 310 310 310 310 311 311
308 307 307 306 306 303 303 302 301 300 299 299 297 295 294 293 291 290 290 289 288 288 290 290 289 287 286 287 287 288 290 289 288 289 289 290 291 291 290 290 290 290 290 289 289 290 290 290 290 290 290 289 294 302 304 307 307 310 315 318 318 316 315 314 313 312 311 311 310 310 310 309 309 309 309 309 309 309 309 309 310 310 310 310 310
307 305 305 305 304 301 301 302 300 300 299 298 296 295 293 292 291 289 289 290 289 289 291 290 286 286 285 285 285 285 287 288 288 288 289 289 290 291 290 290 289 289 289 289 289 289 289 289 289 289 289 289 288 290 294 296 298 308 312 316 318 317 316 315 313 312 310 309 310 310 309 309 309 309 309 308 309 309 309 309 309 309 309 310 310
305 304 306 304 304 302 300 300 300 299 297 296 295 294 292 292 291 291 288 287 288 289 290 292 286 284 284 284 282 283 285 286 286 287 289 289 289 290 290 289 289 289 289 288 288 288 289 288 288 288 288 287 287 288 292 295 293 300 307 311 313 318 316 315 314 313 311 310 309 310 309 309 309 309 309 308 308 308 308 308 309 309 309 309 310
303 303 303 303 302 302 299 298 299 298 299 297 294 294 292 291 291 291 290 288 288 289 290 290 286 287 283 285 281 282 280 283 286 285 287 288 289 289 289 290 288 288 287 288 288 288 288 288 288 288 288 287 288 288 291 290 295 298 298 302 305 311 317 316 315 314 313 311 310 309 309 309 308 309 308 308 308 308 308 308 308 309 309 309 309
301 302 302 301 301 301 299 297 297 297 297 297 295 295 293 293 292 291 290 290 288 287 289 289 288 291 288 281 281 282 282 280 283 282 284 286 288 288 289 289 288 288 288 287 287 288 288 287 288 287 288 288 287 288 291 291 292 293 292 294 298 306 312 317 315 314 313 312 310 310 309 309 308 308 308 308 308 308 308 308 308 308 309 309 309
299 300 300 300 299 299 299 296 296 297 297 296 296 293 293 292 291 292 290 290 290 287 288 290 288 288 288 286 286 284 281 281 283 282 282 284 285 287 287 288 288 288 287 287 287 287 288 288 288 288 288 288 288 287 290 290 291 290 290 294 303 307 308 313 315 314 313 313 312 310 310 309 308 308 307 307 307 307 308 308 308 308 308 308 308
298 298 298 298 298 298 297 296 295 295 296 296 295 295 294 293 292 291 291 291 288 288 288 289 288 288 288 288 287 285 284 285 283 280 281 283 283 285 286 286 287 287 287 287 287 287 287 287 288 288 288 288 287 287 289 290 294 293 298 300 306 308 309 312 314 313 313 313 312 311 310 310 308 308 307 307 307 307 307 307 308 307 308 308 308
298 297 297 296 296 296 296 296 295 294 295 295 295 295 295 294 293 292 291 290 289 289 288 287 288 289 289 288 286 286 285 286 283 287 282 280 282 283 283 285 285 287 288 287 286 287 286 286 287 287 287 287 287 287 289 290 290 292 294 301 306 308 308 308 311 310 311 312 312 311 311 310 309 309 308 307 307 307 307 307 307 307 307 307 307
297 297 295 296 295 295 294 294 294 294 292 294 293 294 294 294 293 292 291 290 289 288 287 288 288 288 286 287 286 286 286 286 285 284 283 283 281 281 283 284 284 285 287 288 287 287 287 287 287 287 287 288 287 287 288 290 291 291 294 300 306 309 309 308 307 308 309 309 309 310 310 310 310 309 308 307 306 306 307 307 307 307 307 307 307
295 295 295 294 294 294 293 293 293 293 292 291 291 291 291 291 293 293 293 292 291 289 288 287 288 289 288 288 287 285 286 288 286 284 284 282 285 281 282 283 283 285 287 286 287 287 286 287 287 287 287 287 287 287 287 289 291 291 293 299 304 307 308 307 305 305 305 306 307 307 308 309 309 309 308 307 306 306 307 307 307 306 306 306 306
293 294 293 293 293 293 292 292 292 292 292 291 291 291 291 290 291 291 291 292 292 290 289 288 287 287 287 286 287 287 287 287 287 286 287 286 284 281 280 283 285 284 283 287 287 286 286 286 286 286 287 287 287 287 287 288 292 293 295 298 302 304 306 305 305 304 303 303 304 305 305 306 307 307 307 307 307 307 307 307 306 306 306 306 306
292 291 292 292 291 292 291 291 291 291 292 292 291 291 291 289 289 289 290 290 290 290 289 289 288 286 287 287 286 287 287 287 288 289 287 288 287 286 282 281 282 283 282 283 285 285 286 286 286 287 287 287 287 287 287 288 291 294 294 296 301 304 306 306 305 303 302 302 302 303 303 302 303 303 305 306 306 307 307 307 306 306 305 306 306
291 291 292 292 291 292 291 291 291 291 291 290 291 290 289 290 289 288 288 288 289 289 288 288 288 287 287 287 287 286 287 288 288 288 287 288 286 284 283 280 282 282 283 281 283 285 286 286 286 286 286 286 287 287 287 288 290 293 294 295 300 302 303 304 303 302 301 301 301 301 301 301 301 301 302 303 305 306 307 306 306 306 306 306 306
290 290 291 291 292 292 291 291 290 290 290 290 290 290 289 290 290 289 288 289 288 288 288 288 287 287 287 286 285 286 286 286 287 287 286 286 284 284 284 282 281 282 281 281 281 283 282 285 287 286 286 286 286 287 287 287 288 293 294 292 297 300 301 302 302 301 300 299 299 300 299 299 300 300 300 302 303 304 305 306 306 306 306 306 306
289 290 290 290 290 291 291 290 290 289 289 289 291 289 289 289 289 289 289 288 287 287 287 286 288 286 285 285 286 285 285 285 286 287 287 286 287 285 284 284 282 281 281 281 280 282 283 284 286 286 286 286 286 286 287 287 289 292 293 292 292 297 300 301 302 301 300 299 299 299 299 298 299 300 299 300 302 303 304 305 306 306 306 306 306
289 289 289 289 289 289 290 290 290 290 289 288 288 288 287 287 288 287 288 289 287 286 286 286 286 286 286 286 285 285 285 285 285 286 287 287 286 286 284 285 284 283 281 281 280 281 283 283 282 285 286 286 286 287 288 288 287 293 292 291 291 293 297 299 301 301 299 298 299 298 298 297 298 298 298 298 300 301 302 303 303 303 303 303 303
288 288 288 288 288 288 288 288 289 289 288 288 287 286 286 286 287 287 287 287 286 286 286 285 285 285 285 285 286 287 285 285 285 285 285 285 286 286 286 286 286 283 283 280 282 282 282 284 283 284 286 286 286 286 286 287 288 289 290 290 290 290 294 298 299 300 299 299 299 298 298 297 297 297 298 297 298 299 300 300 300 300 301 301 300
287 287 287 286 287 287 286 286 286 287 287 287 287 287 286 287 286 286 286 286 286 286 286 285 285 285 285 285 285 285 285 284 284 284 284 285 284 284 286 286 286 285 284 282 283 283 282 282 284 283 284 285 286 286 286 286 289 289 289 289 288 288 293 296 298 300 299 299 298 297 298 297 296 296 297 297 297 298 298 299 298 298 299 299 299
285 285 285 285 285 285 285 286 286 286 286 286 286 287 286 287 287 287 286 285 285 286 286 286 286 285 284 284 285 284 284 284 284 284 284 284 284 283 283 284 284 286 286 284 282 283 285 283 284 284 283 284 286 286 286 286 288 289 288 288 287 289 291 293 296 298 298 297 297 297 298 297 296 296 296 296 297 297 298 298 297 298 298 298 299
284 284 283 284 285 285 285 285 285 285 286 286 286 286 286 286 286 286 287 285 285 285 286 286 286 286 285 284 285 285 285 284 284 284 284 284 284 284 283 283 283 284 284 285 283 284 283 285 284 284 284 284 285 284 284 285 286 289 287 287 287 288 288 289 293 295 296 297 297 297 298 297 296 296 296 296 296 297 297 297 297 297 297 298 298
284 283 283 284 284 284 284 285 285 285 285 286 286 286 285 285 285 285 285 285 285 285 285 285 285 285 284 284 285 285 284 284 284 284 284 284 283 283 283 283 283 283 283 283 283 284 283 282 282 283 283 283 282 284 284 284 283 285 288 286 285 285 285 286 288 292 294 296 297 297 297 297 296 296 295 295 295 296 297 297 297 297 297 297 297
283 283 282 283 284 284 284 284 284 284 284 285 285 285 285 286 286 287 286 285 285 285 285 284 285 285 285 284 285 285 284 284 284 284 284 283 283 283 283 282 283 283 282 283 283 283 283 280 280 280 281 282 283 283 283 283 283 284 285 285 284 284 284 284 284 286 292 294 296 296 296 297 297 297 296 295 295 296 296 297 296 296 296 297 296
282 281 281 282 282 283 283 283 283 283 284 283 284 284 284 285 285 285 286 286 286 286 285 285 285 285 284 284 284 285 285 284 284 284 284 283 283 283 284 284 283 284 283 282 283 283 283 281 280 280 280 281 282 282 283 284 284 284 284 284 283 284 284 284 284 284 290 293 295 295 296 296 296 297 296 295 295 295 295 296 296 296 296 296 296
281 281 280 281 281 282 282 282 282 282 282 283 283 283 284 284 284 284 285 285 285 285 286 286 286 286 285 285 285 285 284 284 284 284 284 283 283 283 283 284 283 284 284 282 282 283 284 283 280 280 280 280 281 282 283 283 283 283 283 284 283 282 282 283 283 283 287 292 294 294 295 295 295 296 296 295 295 295 295 295 296 295 295 295 294
282 281 281 281 281 281 282 282 282 282 282 282 282 283 283 284 283 284 284 284 284 285 285 285 286 285 286 285 286 285 285 284 284 284 284 284 284 284 284 284 284 284 284 283 283 283 283 283 283 280 280 280 282 281 282 282 281 281 281 282 281 281 281 281 281 282 285 291 293 293 293 294 294 295 295 295 295 295 295 295 295 295 294 294 294
282 282 281 281 281 281 281 281 282 282 282 282 282 282 282 283 283 283 283 283 284 284 284 285 284 285 285 285 285 285 285 284 284 285 285 284 284 284 284 284 284 284 283 282 282 283 282 283 283 280 278 279 280 280 280 282 281 280 280 280 279 280 280 279 279 281 281 283 286 288 290 291 293 294 294 294 295 295 295 295 295 295 294 293 293
281 281 282 281 281 281 281 281 281 281 281 281 282 282 282 282 282 282 282 283 283 284 284 284 284 284 284 284 284 285 284 285 285 285 284 284 284 284 284 284 284 284 283 283 283 282 282 282 282 282 279 279 280 280 280 281 281 281 280 279 278 279 279 280 279 279 280 281 285 289 288 289 290 291 292 294 295 295 294 294 295 294 293 293 293
280 280 280 281 281 281 281 281 282 282 281 281 281 281 282 282 282 281 281 282 282 283 283 283 283 284 284 284 284 284 284 285 285 285 284 284 284 284 284 284 284 284 283 283 283 282 282 282 282 281 278 279 278 279 279 279 279 279 280 279 278 278 278 279 279 279 279 280 280 283 288 289 289 290 292 293 293 294 294 294 294 294 292 292 292
280 280 280 279 279 280 280 280 281 281 281 281 282 281 281 281 282 281 281 282 282 282 282 282 283 283 283 283 283 284 285 285 286 286 286 286 284 284 284 283 283 283 283 283 283 283 282 282 281 282 279 277 279 279 277 278 278 279 280 279 279 279 278 278 278 280 280 279 279 280 282 284 284 284 286 286 288 291 291 292 292 292 292 292 292
278 278 278 278 278 278 278 279 279 280 280 281 282 284 285 283 282 282 282 282 282 282 282 282 282 282 283 283 284 285 285 285 285 286 287 288 288 286 285 284 283 283 283 283 283 283 282 282 281 282 280 278 279 279 279 279 280 280 278 278 278 278 277 277 278 278 279 279 278 277 279 282 283 282 283 283 285 288 288 289 289 290 291 293 292
278 278 278 278 278 278 278 278 278 279 279 280 283 284 285 286 284 283 282 282 282 282 281 281 281 281 281 282 282 284 284 285 285 286 288 288 288 288 289 288 287 284 283 282 282 283 282 282 282 282 281 281 280 280 280 280 280 280 279 279 278 278 276 275 275 277 279 279 278 277 277 280 281 280 281 281 283 284 286 286 291 291 291 292 292
277 277 277 277 278 278 278 278 277 278 278 281 283 284 284 285 285 283 282 282 282 282 282 282 281 281 281 281 281 282 283 283 283 284 285 287 288 288 288 289 289 289 288 285 283 282 282 282 282 282 282 282 282 281 279 279 279 279 279 279 278 278 277 277 277 277 278 280 278 277 277 279 280 280 279 280 281 282 284 287 290 292 292 292 292
275 274 275 275 276 276 277 276 277 277 277 281 282 283 283 284 284 283 281 281 281 281 281 281 281 281 281 281 281 281 282 284 284 284 283 283 286 287 288 288 288 289 289 290 289 286 285 284 283 282 283 283 282 282 280 280 280 279 279 278 278 279 279 278 278 279 277 280 279 277 277 278 279 278 278 280 280 281 282 287 289 291 292 292 292
273 273 273 273 274 274 275 275 275 276 276 279 281 282 282 283 283 283 280 280 281 281 281 281 281 281 281 281 280 280 281 281 282 282 282 283 283 283 283 284 284 285 288 289 289 289 288 286 284 283 284 284 283 284 282 282 280 279 279 278 279 278 278 279 280 280 278 281 278 278 277 278 279 278 277 279 280 280 281 284 288 290 291 291 291
270 270 270 270 271 272 272 273 273 273 274 278 279 280 281 282 283 283 279 279 279 280 280 280 280 280 280 281 281 280 281 281 281 282 281 281 282 282 282 282 282 283 283 284 285 286 286 287 286 286 285 285 285 285 283 282 282 281 281 281 281 280 280 281 281 280 279 280 280 279 276 279 279 277 277 279 279 280 281 284 287 289 291 291 291
267 268 268 268 268 268 269 270 270 270 271 276 277 278 280 281 281 278 278 277 277 278 278 279 279 280 280 280 280 280 281 281 283 285 285 283 281 280 280 281 281 282 282 285 287 287 286 286 286 286 287 287 288 286 285 282 282 282 283 282 282 281 279 278 277 279 277 279 280 279 278 277 278 277 277 279 279 279 280 280 286 289 290 290 290
264 264 265 265 266 266 267 267 268 268 270 272 276 277 278 279 278 275 276 276 276 276 277 277 278 279 280 280 280 280 280 280 283 285 286 286 282 281 280 280 280 281 281 283 286 288 289 289 289 290 290 290 290 290 290 288 284 283 281 280 279 280 278 276 277 278 277 277 278 279 279 275 277 277 277 278 279 279 279 279 281 287 290 290 290
262 263 263 263 264 265 265 265 266 266 266 269 273 274 275 276 275 273 274 274 274 275 276 277 277 277 278 280 281 280 280 280 284 285 286 285 282 282 281 280 280 279 280 282 283 284 288 288 289 289 289 290 290 290 290 290 289 286 281 278 279 280 277 278 277 278 278 278 278 280 277 277 278 278 277 276 278 278 279 279 280 283 288 289 289
261 262 262 262 262 263 263 264 265 264 263 265 270 272 273 274 273 271 272 272 273 273 274 274 275 276 276 278 279 280 280 281 284 284 285 284 282 282 281 281 280 280 281 282 281 281 281 282 283 285 285 287 287 287 287 289 289 287 283 282 282 280 278 278 278 278 277 277 279 281 277 277 277 277 277 274 273 276 278 278 278 279 282 284 285
Wind_Speed
7 7 6 7 6 7 6 6 6 6 6 6 7 6 6 6 6 5 5 4 4 4 4 4 5 4 5 4 4 4 4 4 4 4 4 3 2 2 3 3 3 3 1 2 5 6 7 8 7 6 4 5 5 3 3 5 4 2 5 5 5 5 4 3 3 4 4 3 3 4 4 4 4 4 4 5 5 6 6 7 9 10 10 11 11
6 6 8 7 6 6 7 7 7 6 6 7 6 7 7 6 5 5 5 5 5 6 4 4 4 4 4 5 4 5 4 4 4 5 4 3 3 2 4 3 4 4 4 2 2 7 7 6 5 4 4 5 5 5 3 5 5 3 3 3 4 4 4 3 2 3 3 3 3 4 4 4 4 4 5 4 5 5 6 7 7 7 8 8 9
7 7 6 7 6 7 7 6 6 7 7 6 6 7 6 7 7 6 6 6 6 4 6 5 5 4 4 4 5 4 4 3 3 4 4 4 3 2 2 4 4 5 6 5 6 4 1 6 7 7 7 6 7 7 9 7 9 6 5 4 4 4 4 3 2 2 3 2 3 4 4 5 5 5 5 5 5 5 4 4 4 5 7 8 8
8 7 7 7 7 7 6 7 7 6 7 6 6 6 6 6 6 6 5 5 5 5 4 6 5 5 4 4 4 5 4 4 4 4 4 4 4 3 3 3 5 5 6 6 6 6 7 4 6 8 5 6 7 8 7 5 5 6 6 6 5 4 2 3 3 1 3 3 3 4 4 5 5 5 5 5 5 6 6 5 6 5 5 5 6
7 8 7 7 7 7 6 7 6 6 6 6 6 5 5 6 6 5 5 4 5 4 3 4 5 4 4 4 4 4 4 4 4 4 4 4 5 4 3 3 3 5 6 6 6 6 6 6 5 4 3 6 7 7 7 7 3 3 4 5 5 5 4 2 1 3 3 3 3 3 3 3 4 5 5 5 5 5 5 5 5 5 5 6 6
8 7 7 7 7 7 7 7 6 6 6 6 7 6 6 6 6 6 6 6 6 6 6 5 4 3 4 3 3 4 5 4 4 4 3 4 3 4 3 3 3 3 3 6 6 6 6 6 6 6 5 4 4 6 7 5 4 4 6 4 5 6 5 4 4 3 3 3 3 3 2 3 3 4 4 4 4 4 5 5 5 5 6 6 6
6 8 7 7 7 7 7 7 6 6 7 6 7 6 7 7 7 7 5 5 6 6 6 6 5 5 4 3 4 3 3 4 3 3 3 2 3 4 4 3 2 2 2 3 5 6 7 6 6 6 6 6 3 4 7 7 7 7 6 5 6 5 6 6 5 4 3 4 3 3 2 2 3 3 3 3 3 4 4 4 4 4 5 5 5
6 7 7 7 7 7 7 6 6 6 7 6 6 8 7 6 6 7 7 6 6 5 4 6 5 5 4 3 4 3 3 3 4 4 3 2 2 3 3 2 3 3 3 3 3 4 6 6 6 7 7 7 5 1 6 7 7 8 6 6 6 6 8 5 5 4 4 4 4 3 4 2 2 3 2 3 2 3 3 3 3 3 3 4 4
6 6 7 7 6 7 6 6 6 7 7 6 7 7 7 7 6 6 7 7 7 6 4 6 5 4 3 3 4 3 4 4 4 4 2 3 2 2 3 3 3 4 3 3 2 2 4 5 6 6 6 6 6 6 4 5 8 7 7 7 8 7 7 8 6 7 5 5 4 4 4 4 3 3 2 2 1 1 1 2 2 2 2 3 3
5 5 6 6 6 7 5 6 6 6 6 6 6 5 6 7 7 5 6 6 7 8 7 5 5 5 4 4 4 3 5 5 4 3 4 4 3 3 4 4 4 4 4 4 4 3 2 3 4 4 4 4 3 3 3 3 1 6 10 10 9 8 8 8 8 5 5 5 6 5 5 4 4 3 2 2 2 2 2 1 1 2 3 3 2
5 5 6 6 6 6 6 6 6 7 7 6 5 5 5 6 8 7 4 6 8 7 8 7 6 5 5 5 4 4 4 4 4 5 5 5 4 4 3 5 4 4 5 4 4 4 4 2 2 1 0 3 2 2 3 3 2 1 5 11 10 10 10 9 9 9 7 7 6 7 6 5 5 4 4 3 3 3 2 2 1 1 1 1 2
4 4 5 6 6 6 6 6 6 7 7 7 7 7 9 7 7 9 7 4 3 5 5 6 4 3 2 1 1 1 2 2 4 5 6 5 6 5 7 5 5 4 5 5 5 4 4 4 3 3 1 1 2 2 3 3 4 4 4 7 12 11 11 11 10 9 9 9 8 7 6 5 6 5 5 4 4 3 3 3 3 2 1 1 1
4 4 5 6 6 5 6 5 6 7 8 9 9 9 8 7 6 4 7 6 4 3 5 7 7 2 1 0 2 1 1 1 4 4 4 6 6 6 5 6 6 6 6 6 6 6 6 6 5 5 4 3 3 2 3 2 3 5 6 6 10 13 13 11 11 10 9 8 9 9 9 7 7 6 6 5 5 5 5 4 3 3 2 2 2
4 4 4 5 5 5 5 6 6 7 7 6 6 6 6 5 5 5 4 9 7 7 7 9 2 7 4 2 2 3 3 3 4 5 5 3 4 5 5 6 6 6 5 6 6 7 6 7 6 6 6 6 5 5 3 3 3 5 6 6 8 15 14 14 12 11 10 8 7 8 8 9 9 8 7 6 6 5 5 5 5 4 4 3 3
3 3 4 4 5 5 6 6 6 6 6 5 5 7 7 8 8 9 6 4 4 6 10 11 8 5 4 3 3 2 3 3 5 6 6 5 4 6 6 5 6 5 5 4 5 5 5 5 5 5 5 5 5 4 4 5 5 5 6 6 7 9 17 15 15 14 12 11 10 10 10 9 9 9 8 8 7 7 6 5 5 5 5 4 3
1 2 3 2 4 4 4 4 6 5 7 8 6 8 7 6 7 7 6 6 5 8 8 9 6 10 4 7 4 3 4 8 11 5 7 7 6 7 5 6 5 4 4 6 6 5 5 4 5 5 5 5 5 4 6 5 5 6 5 4 6 8 12 18 16 15 14 14 12 11 11 10 9 9 9 8 8 8 8 7 6 6 5 5 4
1 1 2 3 2 2 2 3 4 5 5 6 7 8 8 9 10 8 8 9 8 4 7 8 8 11 8 5 2 2 7 4 1 5 3 5 7 6 6 6 7 7 7 7 5 7 6 5 5 5 5 5 5 5 5 5 4 4 4 5 5 7 9 18 18 16 15 14 13 12 11 11 10 9 9 8 8 8 8 8 8 7 7 6 5
1 1 2 2 2 2 2 2 3 4 4 6 6 5 6 7 7 8 9 8 8 5 6 8 7 7 6 4 6 7 5 4 3 6 1 4 4 5 7 7 7 8 7 7 8 7 6 7 6 7 6 6 6 5 6 5 4 4 4 4 6 6 7 15 18 17 16 15 14 14 12 12 10 9 9 8 8 9 9 9 9 9 8 7 7
0 1 1 1 2 2 1 2 3 4 4 4 5 6 6 7 6 7 8 8 5 8 9 8 5 8 8 8 2 0 4 7 7 2 2 2 4 6 6 5 6 6 8 8 7 7 7 6 7 7 7 6 6 6 6 6 7 6 7 8 10 7 5 10 17 18 16 15 15 15 14 13 12 11 10 9 9 9 9 9 9 9 8 7 8
1 0 1 1 2 3 2 2 2 3 4 5 6 6 5 4 5 7 7 7 8 9 8 6 10 9 8 10 8 2 1 1 2 9 5 3 4 3 3 6 5 7 8 8 9 9 8 7 7 7 7 7 7 7 6 6 6 6 6 11 12 10 6 3 11 13 15 15 15 15 13 12 12 12 11 9 10 10 10 10 9 9 8 6 7
0 1 1 1 1 3 3 3 3 3 3 4 4 5 6 6 6 6 7 7 7 7 6 8 8 9 5 8 7 7 5 3 1 1 5 5 6 6 6 1 3 7 8 9 8 8 9 9 8 8 7 7 8 7 7 7 7 7 7 13 15 14 12 9 8 13 15 15 15 15 13 12 12 12 11 10 10 11 10 10 10 9 9 8 7
2 1 1 1 1 1 2 3 4 4 2 4 4 4 4 5 6 7 7 9 7 7 9 7 7 7 7 5 8 6 5 5 4 3 3 3 8 6 7 9 8 10 10 9 11 9 8 8 8 8 8 8 8 8 7 8 7 7 8 14 16 16 16 14 12 12 11 11 13 14 13 12 12 12 12 12 12 12 11 11 10 10 9 9 8
6 4 3 2 2 1 3 4 3 3 3 3 4 4 5 5 5 5 6 8 8 8 8 7 7 7 7 7 8 8 11 10 10 7 8 6 3 5 3 8 11 9 6 11 9 9 8 7 9 9 10 9 8 8 8 8 8 9 12 15 16 17 17 17 15 14 13 13 13 12 11 10 11 12 13 12 13 13 12 12 11 10 10 9 9
6 6 6 6 4 3 2 2 3 3 4 4 4 4 4 4 4 5 5 6 6 7 7 9 8 7 7 7 8 7 7 7 6 7 8 8 8 8 7 3 5 6 3 2 6 8 9 10 10 10 10 8 9 9 9 8 9 14 12 16 17 19 21 20 20 18 17 16 15 14 13 11 10 10 11 12 13 14 13 13 12 12 11 10 10
9 8 8 8 6 5 4 4 4 4 4 3 4 4 4 4 4 5 5 5 7 8 8 9 9 9 9 8 8 8 9 7 6 6 5 6 5 7 4 3 6 4 5 3 5 6 7 9 9 10 9 9 9 9 9 9 9 13 15 13 19 18 20 22 21 20 19 18 18 17 16 15 14 13 12 12 13 13 14 14 13 12 12 11 11
8 8 7 7 8 6 4 4 3 4 4 4 4 4 4 4 4 5 6 7 6 7 8 8 9 9 7 7 7 8 8 7 8 6 7 5 7 7 5 4 3 6 1 3 1 3 5 8 10 9 8 9 10 9 9 11 9 14 17 12 15 19 19 21 22 21 20 20 20 19 18 18 17 17 16 16 14 13 14 14 14 13 13 12 11
8 8 8 8 8 9 8 5 5 4 4 4 4 4 4 4 4 5 5 5 6 6 6 7 9 8 8 8 8 7 7 7 7 8 7 8 8 7 7 9 6 4 6 3 3 8 4 6 9 8 10 10 10 10 11 10 12 15 16 12 10 18 18 23 23 23 21 21 21 21 20 19 18 18 17 17 17 15 14 14 14 14 13 13 11
8 9 9 8 8 8 8 8 7 6 5 5 4 4 5 4 5 5 6 4 5 6 7 6 8 8 9 8 7 8 6 7 7 8 8 8 8 6 7 9 11 12 5 7 5 8 5 7 3 9 9 11 11 11 12 11 9 15 17 11 10 12 20 23 24 23 23 22 22 21 21 20 19 18 18 17 16 16 16 15 15 14 13 12 12
9 8 10 9 8 8 7 8 8 7 6 6 5 5 4 4 5 5 6 6 5 7 7 7 7 7 7 8 9 8 8 6 7 7 7 7 7 7 8 12 9 11 12 8 10 8 6 10 7 8 13 12 10 9 9 11 12 14 11 12 11 11 14 23 24 24 24 24 22 22 22 21 20 20 19 19 18 16 16 15 14 12 13 12 9
7 7 7 9 9 9 8 8 8 7 7 6 6 6 5 6 5 5 6 5 5 6 6 7 7 6 7 7 7 7 6 7 7 7 7 8 7 7 8 9 9 13 13 12 13 8 6 5 9 5 8 12 11 9 10 12 14 15 11 12 11 12 15 23 24 25 24 24 23 23 23 22 22 21 20 19 19 18 17 16 14 13 12 12 11
8 9 9 9 8 9 7 8 8 8 7 7 6 7 6 6 6 6 6 5 5 7 7 6 7 6 7 8 7 8 6 7 8 7 7 7 7 7 8 7 8 12 13 10 14 7 8 9 9 8 8 12 11 11 9 9 12 16 13 11 12 12 15 17 21 23 24 24 23 23 23 24 23 23 22 20 20 19 18 16 15 14 13 13 12
3 4 5 7 8 9 9 8 8 7 7 7 7 6 6 6 6 7 7 5 6 7 8 7 6 6 6 7 8 7 7 6 8 7 8 7 7 7 8 7 8 9 9 11 14 16 6 9 9 11 12 10 12 12 11 9 10 17 11 12 12 14 12 11 20 23 23 24 24 24 24 24 24 24 23 22 21 20 18 17 16 15 15 15 14
5 5 4 4 5 5 7 8 7 8 8 8 7 6 7 7 6 5 6 6 7 8 7 8 6 6 7 8 8 8 6 7 8 7 8 7 7 7 7 7 8 7 8 9 13 16 6 5 4 7 8 8 8 11 11 11 9 10 13 11 10 11 11 11 12 20 22 23 24 24 24 24 24 24 23 22 21 20 19 19 18 17 16 16 16
4 5 6 6 6 5 4 5 5 5 6 7 7 7 7 8 8 6 6 6 7 8 6 8 8 7 6 8 9 8 7 8 8 8 7 8 7 8 8 8 9 9 8 8 11 10 13 2 5 2 4 7 10 8 14 13 12 9 12 11 10 12 12 11 10 12 23 23 24 24 24 24 23 23 23 22 21 21 20 20 19 18 17 16 16
5 4 5 5 7 7 8 8 6 5 4 4 4 5 6 7 8 8 7 7 8 8 8 8 8 7 7 8 9 7 6 7 8 8 7 8 7 9 11 8 10 11 8 9 10 13 13 9 6 6 6 6 11 11 13 12 12 12 14 12 12 11 10 11 11 10 17 25 25 24 24 23 23 23 23 23 23 23 22 21 20 19 18 16 16
7 7 5 5 5 6 7 8 8 7 7 6 5 4 6 6 6 7 8 8 8 8 9 9 8 8 9 9 8 7 7 9 9 8 8 7 8 9 10 10 10 11 9 7 10 12 12 13 7 9 6 8 9 5 7 8 9 10 11 11 9 9 9 9 11 11 13 25 25 24 23 22 23 23 24 24 24 23 22 21 20 20 19 18 17
6 6 7 6 7 7 8 8 9 8 8 7 7 7 7 6 7 7 7 7 8 8 8 8 8 8 9 9 10 7 7 9 9 8 7 8 9 9 10 10 9 9 8 9 11 11 12 14 10 5 7 7 6 5 7 11 8 7 6 9 11 12 11 9 7 7 8 20 23 22 20 21 22 24 24 24 23 23 23 23 22 21 21 20 20
7 6 7 7 6 8 8 9 9 9 9 8 8 8 8 8 7 8 8 7 8 8 8 8 8 7 8 10 9 8 8 10 11 9 8 10 9 10 11 10 9 8 9 10 10 11 12 14 13 8 5 8 6 6 8 10 10 9 7 7 4 6 8 8 9 8 8 8 9 11 15 18 22 25 24 23 25 25 24 23 23 22 22 21 21
8 8 8 8 8 8 9 8 8 9 10 10 10 10 10 9 8 8 8 8 9 9 8 8 8 8 8 9 9 9 9 10 11 10 10 10 9 11 11 11 10 10 11 11 10 11 13 14 13 11 8 7 9 10 7 9 10 11 13 11 10 8 8 11 11 7 7 9 10 14 13 12 12 12 20 24 24 24 24 24 23 23 21 21 21
10 9 10 10 10 8 9 9 9 9 9 9 9 9 10 11 11 10 10 9 9 9 9 10 9 9 9 9 9 10 10 10 10 10 9 10 9 10 10 9 9 11 11 11 10 11 12 12 13 12 7 8 6 4 2 5 8 9 8 9 13 12 13 11 12 12 11 10 11 10 12 13 13 16 20 23 25 25 25 23 24 22 22 23 23
8 9 9 9 10 11 10 10 10 9 9 9 8 8 10 11 11 11 11 12 12 11 10 9 9 10 10 9 9 9 11 14 16 14 13 11 9 10 10 8 9 11 11 10 10 10 11 11 12 11 8 8 9 10 9 11 15 16 9 8 11 9 6 7 10 10 9 11 10 8 10 11 10 11 10 10 13 20 20 23 18 24 23 24 25
7 8 8 8 8 9 10 10 9 8 9 8 11 17 16 13 12 12 12 12 12 12 12 12 11 10 10 10 10 15 16 17 17 18 19 20 19 15 12 9 9 10 11 11 11 11 11 12 13 11 10 11 11 12 13 13 11 6 8 12 12 8 6 10 8 9 9 9 10 11 11 8 10 10 9 11 9 13 10 13 12 15 21 26 27
9 10 9 9 9 8 9 9 10 10 10 10 15 20 21 23 16 13 13 13 13 14 13 13 13 13 12 10 9 11 14 15 15 19 19 21 21 22 23 21 16 12 11 12 13 11 11 12 12 11 12 14 14 10 12 10 9 13 13 12 12 9 11 12 14 6 9 12 11 9 11 10 9 12 11 11 11 10 11 12 17 22 23 26 27
11 10 12 12 12 11 10 11 12 12 11 13 22 23 24 24 21 15 12 12 12 12 12 14 14 13 13 12 11 9 9 11 11 12 15 19 21 22 23 22 22 23 21 15 13 11 11 12 12 13 12 15 14 9 9 9 10 11 11 11 13 15 14 14 13 12 8 16 12 13 14 10 11 12 11 13 11 12 13 15 22 25 25 27 28
14 14 14 14 14 13 13 14 14 14 13 15 22 24 24 25 25 22 13 13 13 13 14 14 14 14 14 14 13 12 10 16 14 12 11 12 17 22 22 23 23 23 23 25 24 17 11 13 13 15 14 13 14 12 10 11 8 13 12 12 13 13 13 14 15 11 6 15 12 13 14 11 12 14 14 13 12 12 12 18 24 25 25 27 27
14 15 15 15 14 13 12 13 12 14 14 18 27 28 28 28 27 23 14 14 14 15 16 14 13 14 14 14 14 14 14 14 12 11 11 12 11 11 12 13 13 17 21 25 25 26 22 16 15 17 16 13 14 12 8 11 13 14 13 14 13 13 14 17 15 8 6 14 18 14 11 10 13 13 15 13 10 12 12 15 24 25 26 27 27
13 12 15 14 15 15 14 14 13 14 14 27 30 31 30 31 31 26 15 14 14 15 15 15 15 15 15 15 15 15 15 15 13 14 13 12 11 12 12 12 13 13 13 14 15 15 15 14 16 18 18 15 14 14 8 11 15 15 15 16 16 15 15 13 8 8 8 12 14 11 14 12 10 12 15 12 11 12 10 15 23 25 26 26 26
12 13 13 13 16 16 16 15 16 15 18 30 30 30 31 30 32 19 15 15 15 15 15 15 16 15 15 16 15 15 16 16 15 19 19 14 12 12 14 13 13 12 13 13 16 14 15 14 14 16 17 17 16 14 11 10 11 10 9 9 7 9 11 11 15 11 9 9 14 13 9 6 10 15 13 8 9 11 10 10 19 25 25 26 26
13 14 13 14 13 15 17 15 15 15 16 24 31 31 31 33 26 16 16 15 15 16 17 16 16 15 15 15 15 14 15 15 16 21 23 21 16 15 15 15 14 13 13 12 16 20 24 23 22 20 20 21 21 21 22 18 13 9 8 9 13 12 12 13 14 11 11 8 10 13 10 5 7 11 8 6 11 10 10 11 10 20 26 26 26
13 12 11 14 13 13 15 16 14 15 16 24 33 32 33 33 28 20 16 15 16 16 16 17 15 15 16 23 22 17 17 17 18 24 24 20 16 16 16 16 17 16 14 13 11 11 19 24 24 26 26 25 22 20 19 21 20 14 11 15 13 11 13 14 17 13 7 8 10 13 9 10 6 7 6 2 3 4 7 7 8 10 20 21 25
13 11 12 12 14 12 11 13 23 22 17 22 29 29 31 29 24 16 15 13 15 15 14 15 15 14 17 18 26 24 21 22 29 30 31 25 16 16 17 16 17 17 16 14 14 12 9 10 13 16 17 20 18 15 15 22 21 17 14 15 11 12 14 16 15 9 9 11 12 15 13 10 8 8 9 5 5 3 2 6 8 8 8 8 12
Wind_Direction
174 176 156 171 164 166 166 167 163 167 161 171 160 160 159 160 166 181 191 195 190 162 140 142 145 147 145 147 149 146 147 142 130 131 138 140 125 86 69 44 32 34 42 231 195 199 189 179 192 180 172 156 149 173 196 155 144 132 132 113 88 69 62 81 81 79 89 87 95 99 96 101 104 115 103 87 91 87 83 81 75 74 71 67 66
174 168 166 168 167 167 168 170 170 169 169 174 177 162 164 165 170 181 182 186 179 177 149 154 156 163 158 159 160 159 161 156 154 133 146 139 135 99 73 51 40 56 63 58 237 197 204 187 188 149 179 187 168 164 206 194 148 158 123 109 105 80 62 54 68 87 82 89 99 103 109 110 109 115 115 115 112 95 93 87 71 70 64 67 65
171 171 173 163 167 169 177 168 170 181 178 172 170 172 165 173 177 179 180 178 180 171 157 157 171 176 180 160 175 154 163 164 155 149 137 146 145 134 83 67 61 45 55 74 68 72 208 224 185 169 177 197 187 173 188 189 157 174 158 138 124 121 105 79 86 85 91 101 103 101 113 115 111 101 107 105 108 104 92 84 81 77 68 64 63
166 169 171 166 168 173 171 175 186 178 184 174 170 173 170 172 171 173 171 165 168 169 164 150 168 182 177 169 168 158 164 167 151 147 142 152 153 149 125 93 72 64 52 63 76 74 62 37 184 171 185 208 207 192 181 223 185 183 183 169 158 140 111 130 123 142 115 120 120 118 120 123 113 105 105 111 111 100 95 93 89 87 84 77 63
169 167 168 168 166 170 177 187 182 176 184 178 164 163 160 160 170 160 156 155 156 175 160 152 156 188 176 180 162 164 171 158 161 149 153 161 164 157 147 127 93 69 64 49 51 77 83 69 83 130 187 221 224 225 176 184 183 173 211 196 169 163 153 129 177 145 140 135 127 125 121 126 132 128 125 117 109 111 103 101 97 97 102 97 95
159 165 164 167 170 174 178 187 183 179 176 167 171 168 167 162 169 159 169 165 174 176 162 166 187 177 185 188 167 177 169 162 174 175 168 161 156 156 161 139 121 94 65 47 44 51 81 85 83 80 60 29 258 227 180 167 173 193 214 196 192 173 169 158 158 170 158 147 131 119 147 146 137 135 128 126 109 115 118 110 110 110 102 99 97
162 160 171 169 171 176 182 186 172 170 171 178 166 168 160 171 161 168 169 173 177 175 170 170 168 181 196 180 186 190 160 171 169 171 173 189 130 168 167 153 143 109 81 67 42 36 47 66 71 68 56 33 7 215 172 181 187 198 205 201 193 201 155 175 175 171 161 152 162 149 146 153 143 135 138 129 135 128 134 127 118 108 97 96 92
160 161 166 175 175 180 185 167 169 162 169 167 163 170 172 167 180 162 166 189 172 182 166 161 168 178 195 177 196 185 163 155 170 176 202 137 143 144 158 159 160 141 116 82 66 39 40 43 54 54 47 37 24 222 192 194 190 190 202 202 193 190 160 167 167 177 178 159 163 177 165 158 163 157 165 150 150 140 120 118 118 106 109 106 112
160 166 163 172 174 178 176 171 162 164 165 173 175 171 164 169 179 186 172 174 181 172 169 162 166 180 180 172 196 172 168 180 180 189 152 155 166 146 111 150 177 142 134 123 105 75 57 53 49 42 30 31 33 35 14 208 194 195 204 208 203 181 172 175 174 180 171 170 183 179 184 175 182 203 185 185 173 168 141 144 155 135 147 136 139
153 159 162 169 171 175 172 168 162 161 165 170 184 165 168 165 179 195 181 161 181 175 178 165 157 158 163 177 192 174 194 195 195 183 163 178 195 175 171 163 148 147 153 150 152 138 109 91 79 53 30 18 27 32 46 40 69 208 210 213 204 186 182 176 172 156 160 168 192 191 192 193 198 196 211 216 236 234 244 207 211 178 168 164 156
145 152 157 162 167 171 173 171 164 165 165 172 172 172 173 182 178 190 197 194 180 186 173 162 160 159 163 183 181 189 208 205 181 176 187 187 185 194 159 175 160 146 158 163 165 159 152 136 111 92 38 354 353 352 3 11 352 325 252 222 204 198 189 180 176 170 172 178 193 192 197 200 197 201 205 214 228 236 223 256 252 216 173 166 180
146 153 162 167 170 176 178 171 170 163 169 174 184 181 187 187 197 181 186 207 212 172 146 132 92 98 134 193 232 218 171 194 184 192 194 188 191 175 182 187 172 170 162 169 168 172 172 174 168 177 187 252 295 318 338 354 334 301 276 273 214 208 200 183 180 175 183 185 185 191 198 202 205 205 203 206 222 218 233 224 226 240 229 199 196
160 155 173 174 182 173 175 178 170 174 181 191 187 191 191 186 182 184 175 180 209 181 168 136 128 94 7 351 327 319 288 241 216 226 219 212 205 188 185 173 190 182 180 165 171 176 180 181 183 182 190 204 231 256 249 270 301 283 268 287 232 202 206 195 186 184 189 193 189 188 192 196 202 202 207 215 210 216 216 221 221 220 227 239 220
177 169 170 176 179 178 182 184 176 189 195 190 187 188 182 181 162 187 206 182 195 180 180 128 188 181 156 242 318 312 290 305 272 253 239 248 217 198 190 189 193 195 186 174 180 180 184 181 178 182 189 195 208 218 236 239 266 260 272 257 260 206 209 201 189 187 193 206 201 195 193 197 196 196 198 202 206 212 219 224 222 218 224 230 217
186 178 178 190 190 184 196 184 187 181 178 191 188 194 192 188 181 188 199 229 190 186 186 192 166 129 128 98 248 240 304 289 267 242 235 224 206 207 198 194 199 196 193 189 199 201 197 186 181 187 195 197 206 210 206 215 216 237 251 270 278 250 207 203 197 190 185 197 206 202 201 200 202 198 193 196 201 206 213 219 224 218 222 221 227
205 203 210 206 201 202 193 182 193 186 187 188 192 202 194 195 195 203 172 192 206 212 209 195 143 141 188 202 209 151 288 245 221 239 201 213 195 211 198 207 199 209 197 203 209 211 211 200 198 193 198 199 205 201 204 211 216 217 237 260 261 266 231 206 206 194 190 189 200 206 199 200 202 200 196 195 202 203 209 208 212 214 210 218 216
196 225 229 234 228 227 191 201 196 199 193 196 197 202 197 199 195 192 191 196 214 214 222 222 211 203 154 104 45 257 221 245 127 279 188 207 224 207 207 202 198 199 200 213 204 205 201 207 207 199 198 201 204 198 201 206 205 210 218 235 255 255 268 224 208 194 197 187 188 201 199 196 200 205 201 201 210 212 207 207 205 202 206 207 204
192 214 229 227 243 237 206 181 211 207 205 211 208 203 210 205 202 197 205 217 202 192 222 238 236 245 238 225 147 180 185 231 132 267 327 246 232 215 213 208 200 200 205 207 206 209 204 206 202 203 201 202 203 197 200 203 202 205 212 226 221 239 252 236 201 197 198 190 189 192 194 195 199 204 206 209 213 214 213 209 202 199 200 194 200
320 304 259 245 246 254 225 195 200 208 217 219 222 216 214 211 204 206 213 211 185 208 213 217 239 261 253 257 302 144 156 128 212 64 309 301 227 224 232 222 211 204 208 212 206 203 213 207 204 202 205 204 204 203 204 204 203 202 206 214 214 213 236 233 201 199 195 191 190 192 193 195 195 198 201 207 217 220 220 216 210 205 199 200 191
182 322 328 288 271 275 253 228 202 211 197 214 222 224 222 229 216 218 217 212 206 214 216 207 201 227 227 246 256 274 288 20 147 182 173 185 261 268 280 230 225 226 216 210 205 206 204 208 205 205 205 208 205 207 204 204 203 202 208 212 209 201 193 184 185 189 191 190 192 193 195 200 197 202 202 202 219 220 220 220 214 212 208 203 203
342 279 330 292 272 260 278 279 256 238 193 217 231 229 223 222 220 220 218 225 213 222 217 220 218 229 216 247 255 250 259 274 6 114 180 207 253 197 223 250 251 248 234 217 213 206 201 200 201 202 202 209 208 207 205 203 203 198 204 210 209 201 191 176 164 181 188 191 190 191 195 198 204 206 202 205 216 220 220 216 216 216 213 213 210
300 314 308 303 270 254 256 255 255 256 221 218 231 240 238 230 226 223 222 226 220 216 222 226 220 229 221 222 224 240 265 273 266 248 293 201 230 202 201 187 209 237 218 217 217 209 201 197 199 201 205 207 207 208 206 208 202 195 204 208 211 205 195 185 175 167 169 175 183 190 195 200 203 203 204 208 215 219 220 217 214 216 218 215 215
336 322 317 306 282 267 251 259 263 266 262 249 232 230 238 230 232 230 229 229 228 227 231 234 226 227 230 222 227 211 219 220 221 216 212 223 240 244 218 206 209 234 235 216 210 209 201 197 200 206 205 205 205 206 208 209 203 201 197 207 210 208 199 191 185 180 176 177 179 182 189 197 203 206 207 210 215 216 216 216 214 215 215 217 216
13 358 337 325 306 279 268 281 283 282 276 259 259 244 245 242 243 232 234 233 237 236 235 235 231 231 231 225 233 231 241 239 235 218 210 230 212 228 210 201 283 250 274 237 211 204 207 204 208 205 204 204 206 206 207 205 210 201 198 207 208 207 204 198 194 191 189 189 187 188 186 186 191 200 207 213 216 218 216 215 214 212 213 213 215
357 1 354 343 323 299 285 265 271 261 262 284 275 270 261 257 251 249 239 234 230 228 230 231 226 226 228 225 225 225 234 236 231 223 228 240 223 246 242 179 218 239 243 147 219 224 209 216 209 211 202 204 205 204 206 205 207 201 196 206 206 207 208 203 199 195 194 194 195 194 192 192 190 192 198 207 216 219 217 218 217 214 212 212 213
354 359 344 347 354 325 291 279 266 277 277 276 280 280 273 263 260 259 255 246 237 235 235 236 235 235 224 231 226 226 233 226 231 220 222 208 234 223 227 248 215 254 307 227 236 174 247 225 216 209 204 204 206 205 206 208 206 201 197 197 207 207 207 202 202 197 196 197 196 196 194 194 194 195 199 203 208 215 219 217 216 218 216 213 214
356 344 352 358 355 355 347 318 306 299 299 298 290 292 287 283 272 262 268 263 254 244 246 241 243 242 239 230 234 228 224 222 221 232 213 217 219 209 195 245 267 234 255 240 256 222 216 234 211 210 207 206 206 206 209 208 205 198 197 197 206 208 204 204 203 199 197 197 197 196 193 195 197 198 198 202 205 207 213 217 217 216 215 216 215
354 352 350 356 355 355 353 350 338 328 320 308 303 298 293 289 283 281 274 271 267 262 254 248 248 246 244 243 239 243 221 222 223 230 224 223 220 214 202 224 241 263 229 257 226 246 207 229 233 215 207 211 210 208 211 206 205 199 196 199 203 208 207 207 206 203 199 199 198 196 196 195 198 199 198 202 205 206 207 211 215 217 217 217 214
355 352 349 352 353 355 353 349 348 342 333 324 312 302 295 288 279 277 275 274 267 266 265 256 254 251 252 246 243 246 238 224 225 227 233 234 227 225 210 223 220 242 253 248 242 228 235 207 210 223 206 210 211 209 204 207 208 196 197 201 201 205 209 207 209 207 202 200 201 199 197 197 198 199 199 201 203 206 208 208 211 219 216 218 204
356 347 348 350 350 353 351 346 342 341 337 327 323 312 312 300 285 278 268 277 280 278 266 257 260 253 254 261 256 255 248 242 236 221 224 225 228 224 227 231 218 233 243 248 258 183 226 222 215 210 201 211 208 206 205 210 208 195 201 200 201 206 207 208 210 207 204 203 203 202 200 199 199 201 202 201 203 204 205 204 205 207 210 212 210
354 352 349 349 352 346 349 344 342 341 338 333 328 323 317 310 300 291 286 279 273 273 271 266 261 254 257 258 257 257 250 251 251 239 232 226 228 220 233 228 235 236 242 241 261 236 175 212 221 213 201 209 202 206 206 211 205 199 200 201 204 200 200 208 209 208 207 206 204 203 202 200 199 201 202 202 203 204 205 204 205 207 210 213 212
337 337 341 343 345 344 342 343 339 340 342 335 335 326 320 305 296 295 285 286 279 271 273 267 263 260 261 262 259 258 256 251 253 248 245 235 226 231 225 221 233 233 242 248 245 255 182 210 206 209 202 198 199 201 207 210 211 200 202 203 204 198 201 211 212 211 211 209 205 203 203 202 201 202 202 201 202 203 203 203 204 205 209 212 214
336 335 334 333 326 328 330 332 334 334 339 337 336 335 328 315 303 283 282 276 269 269 267 273 268 262 261 260 262 258 253 254 253 251 250 245 240 237 232 227 233 222 218 236 250 261 247 245 206 214 204 181 205 202 204 206 202 207 205 206 193 196 201 207 211 214 213 211 208 205 205 204 203 202 202 202 202 203 202 202 202 203 207 211 215
333 328 331 332 331 319 312 305 309 319 324 330 330 334 326 321 312 306 295 283 274 270 264 266 266 260 254 259 262 260 253 249 252 251 246 249 243 246 241 228 238 237 206 221 245 253 258 218 249 243 183 194 212 195 200 197 207 201 206 203 202 200 202 203 206 214 215 214 211 208 206 206 205 204 202 202 203 202 203 202 202 202 205 208 212
314 311 313 321 324 324 320 316 311 309 305 303 308 314 313 311 308 305 300 293 287 284 276 266 264 262 262 255 257 255 253 254 252 248 246 247 244 244 250 239 243 244 225 216 238 251 253 246 205 214 209 197 207 201 203 208 206 199 203 202 201 203 205 201 206 213 215 214 212 210 206 206 207 206 204 203 203 203 202 202 201 201 204 207 211
309 307 305 303 306 310 308 307 310 309 309 304 298 291 289 290 292 292 295 294 285 278 277 279 275 269 264 267 260 249 248 253 255 250 244 239 242 245 249 248 247 251 242 229 227 246 255 259 216 205 202 196 226 220 210 213 202 200 206 208 205 206 204 204 207 209 214 214 212 210 208 208 208 208 207 206 205 204 203 202 201 200 201 205 208
282 290 297 304 304 300 300 299 299 302 302 302 296 291 283 278 277 278 278 279 281 279 275 273 273 272 271 267 270 262 251 255 258 250 246 241 242 243 247 248 246 249 248 239 243 241 250 252 249 203 200 215 225 210 194 192 200 206 212 209 205 205 205 205 205 214 212 217 214 210 209 211 212 212 212 211 209 207 205 203 202 200 200 202 204
281 272 275 275 269 276 281 288 290 292 294 292 289 286 286 283 276 272 273 271 269 269 273 272 270 265 267 269 268 263 256 253 258 256 249 248 245 243 246 247 244 244 246 245 242 248 247 251 250 239 201 205 219 212 195 195 193 199 211 219 215 213 202 203 210 204 201 207 211 212 212 215 215 214 214 213 211 209 207 205 204 202 201 202 203
287 290 281 278 271 269 274 272 275 282 289 292 293 291 290 285 278 273 270 266 266 272 270 267 264 262 259 262 263 258 256 254 256 257 254 251 246 246 244 246 242 242 244 243 242 244 246 252 252 238 220 212 201 212 203 197 208 203 198 190 212 211 210 209 209 203 200 212 224 216 211 206 205 209 215 215 214 212 210 208 206 204 202 202 203
292 289 289 287 285 279 276 276 275 276 276 277 277 282 286 289 289 286 282 277 269 258 256 257 260 258 254 254 257 257 253 254 253 256 251 253 252 251 246 241 240 239 241 243 240 240 245 248 248 246 217 205 213 220 109 167 211 234 221 201 207 200 207 212 210 198 200 202 208 213 212 208 210 213 216 219 218 215 213 211 209 205 203 201 202
270 268 271 271 276 280 278 276 279 276 274 274 276 276 282 282 278 278 279 279 278 275 268 259 249 249 251 250 249 249 248 252 252 250 248 243 247 255 250 234 234 237 239 240 238 236 241 244 250 246 229 214 213 196 188 193 202 212 194 185 223 219 208 214 227 218 200 196 207 209 216 207 202 206 205 210 216 215 215 211 210 208 205 203 202
278 273 266 264 264 268 273 274 272 275 276 277 273 272 270 270 273 275 278 277 274 272 274 277 273 259 248 246 245 245 248 249 251 253 253 252 248 246 251 241 231 236 235 239 236 234 237 240 242 242 239 234 223 210 208 210 204 186 177 200 215 202 174 223 240 225 202 186 194 210 219 206 204 210 203 211 211 211 212 208 208 205 206 204 203
304 299 291 287 284 278 278 281 282 279 276 274 272 276 280 278 276 275 272 271 271 274 274 271 271 273 271 260 251 247 246 248 248 249 251 250 250 249 248 244 235 231 237 238 239 234 235 239 242 238 238 243 237 215 217 209 194 196 201 197 204 186 196 198 222 218 193 183 197 202 223 209 199 209 210 210 207 209 212 212 207 206 206 205 204
312 308 303 297 295 295 291 287 283 280 279 273 278 282 282 281 280 276 273 273 270 266 267 270 274 274 271 269 266 258 247 241 241 242 244 246 248 250 250 249 246 241 235 233 239 241 233 240 242 239 237 241 246 219 213 204 205 205 207 196 200 199 203 211 220 217 192 177 183 202 221 199 197 212 212 215 204 209 213 209 209 208 206 204 203
315 310 304 303 299 298 295 294 291 289 287 283 285 285 285 285 285 283 278 276 275 272 269 268 266 267 271 273 274 267 260 251 244 242 241 240 240 243 247 250 249 247 247 244 239 238 239 241 243 246 236 242 246 235 206 206 183 208 202 208 208 211 213 217 220 212 139 175 182 208 220 201 186 208 215 214 202 206 212 214 212 210 208 205 203
310 309 308 307 305 301 299 296 294 293 290 293 293 294 293 292 290 288 281 278 275 272 271 266 264 264 263 264 266 267 267 266 257 247 239 239 238 237 240 242 244 246 245 245 247 244 239 239 240 247 244 233 241 242 213 183 190 208 204 214 207 211 214 222 223 206 163 176 187 192 221 208 194 199 218 218 193 206 208 209 210 209 207 204 202
311 310 309 310 306 304 303 303 300 296 293 296 297 298 298 298 297 296 290 284 279 276 274 272 269 267 263 259 257 258 260 260 259 256 253 246 241 239 238 238 237 238 239 238 239 239 238 236 239 244 250 242 240 243 222 192 204 208 203 207 204 208 217 230 241 216 192 191 188 185 216 215 176 195 220 204 193 205 201 204 208 207 206 203 202
303 303 301 304 302 304 304 305 304 299 298 299 300 300 300 299 299 298 295 290 286 281 276 273 271 270 268 262 260 258 255 254 252 250 252 253 252 249 245 245 244 241 241 235 233 229 231 233 237 242 246 245 237 237 227 197 213 211 214 219 219 214 216 219 226 215 211 195 192 193 221 211 174 200 216 190 186 204 197 198 208 207 205 205 203
302 301 301 300 301 302 303 305 305 302 300 303 305 304 303 302 302 301 298 293 286 282 278 276 271 266 264 261 260 261 258 257 250 248 249 249 253 250 249 247 246 245 246 244 240 236 237 235 236 238 242 245 241 237 233 214 207 193 196 202 215 204 211 221 232 221 220 184 200 202 213 214 193 196 196 176 195 201 193 197 197 206 205 203 202
299 298 302 299 296 297 300 304 307 308 306 308 308 307 304 302 300 297 296 294 291 288 286 284 284 282 279 277 274 271 268 264 258 256 252 247 248 248 249 246 247 247 245 243 243 236 234 237 238 240 242 244 242 234 231 233 222 193 193 212 214 201 213 216 226 219 210 192 204 194 200 219 159 174 162 116 146 235 205 188 187 205 208 205 203
290 295 297 295 295 296 302 306 307 304 301 303 306 307 305 305 303 296 291 286 285 280 280 280 277 275 274 273 272 269 267 266 264 264 261 256 248 244 244 245 245 245 243 238 237 232 226 229 236 240 244 244 243 238 236 233 229 215 207 218 211 208 214 221 225 212 221 225 206 180 194 210 154 185 158 138 192 258 170 188 181 191 205 199 200